Location: Praha
(50.0830°N, 14.4670°E)
Time: 20:41:00
(UTC+02:00)

ISS - Pass Details

Date: 11 May 2021
Orbit: 418 x 421 km, 51.6° (Epoch: 07 May)

Event Time Altitude Azimuth Distance (km) Brightness Sun altitude
Exits shadow 03:37:17 - 283° (WNW) 1,876 -0.7 -13.5°
Reaches altitude 10° 03:38:11 10° 284° (WNW) 1,505 -1.2 -13.4°
Maximum altitude 03:41:34 74° 10° (N) 442 -3.6 -13.1°
Drops below altitude 10° 03:44:56 10° 96° (E) 1,505 -0.5 -12.8°
Sets 03:47:03 0° 99° (E) 2,368 0.5 -12.5°
